[[{"header":{"parameterUnit":"m.s-1","parameterCategory":1,"la1":30.2991,"la2":30.254,"lo1":-89.0895,"lo2":-89.0444,"dy":0.0017,"dx":0.0017,"nx":28,"ny":28,"refTime":"2025-06-17T09:00:00:Z","depth":0,"parameterNumber":2,"parameterNumberName":"U-component_of_WINDS"},"data":[0,0,0,0,0,0,0,0,0,0,0,0,0,0,0,0,0,0,0,0,0,0,0,0,0,0,0,0,0,0,0,0,0,0,0,0,0,0,0,0,0,0,0,0,0,0,0,0,0,0,0,0,0,0,0,0,0,0,0.8237,0.8238,0,0.827,0.8271,0.8271,0.8261,0.8261,0.826,0.8259,0.8291,0.8292,0.8294,0,0,0,0,0,0,0,0,0,0,0,0,0,0.8162,0.8164,0.8237,0.8238,0.8238,0.827,0.8271,0.8271,0.8262,0.8261,0.826,0.8259,0.829,0.8292,0.8294,0,0,0,0,0,0,0,0,0,0,0,0,0,0.8195,0.8164,0.8237,0.8237,0.8237,0.827,0.8271,0.8271,0.8262,0.8261,0.826,0.8259,0.829,0.8292,0.8294,0.8328,0,0,0.8301,0.8302,0,0,0,0,0,0,0,0,0.8193,0.8198,0.8237,0.8237,0.8238,0.8261,0.8256,0.829,0.8262,0.8252,0.8259,0.8258,0.8282,0.8284,0.8293,0.833,0.8331,0.8301,0.8302,0.8303,0.8304,0,0,0,0,0,0,0,0.8191,0.8196,0.825,0.8237,0.8238,0.8234,0.8238,0.8262,0.8272,0.8253,0.8253,0.8257,0.8282,0.8291,0.8293,0.8331,0.8301,0.8303,0.8304,0.8305,0.8396,0.8397,0,0,0,0,0,0,0.8189,0.8195,0.8249,0.8251,0.8213,0.8237,0.8241,0.8254,0.8272,0.8274,0.8258,0.8256,0.8287,0.8291,0.8294,0.8334,0.8303,0.8305,0.8307,0.8395,0.8397,0.8398,0,0,0,0,0,0,0.8187,0.8194,0.8248,0.8223,0.8229,0.8239,0.8254,0.8255,0.8265,0.8275,0.8277,0.8265,0.8287,0.8291,0.832,0.8335,0.8306,0.8308,0.8394,0.8396,0.8397,0.8415,0,0,0,0,0,0,0.8185,0.8193,0.8207,0.8223,0.8231,0.8273,0.8255,0.8257,0.8269,0.8267,0.8283,0.8284,0.8286,0.8316,0.8322,0.8338,0.831,0.8393,0.8395,0.8397,0.8413,0.8417,0.842,0,0,0,0,0,0.8183,0.821,0.8208,0.8214,0.8248,0.8274,0.8279,0.8281,0.827,0.8283,0.829,0.8284,0.8333,0.8319,0.8325,0.8342,0.8392,0.8394,0.8396,0.8411,0.8416,0.842,0,0,0,0,0,0,0.8195,0.8213,0.821,0.8244,0.8258,0.8273,0.8289,0.8286,0.8303,0.83,0.8302,0.8305,0.8334,0.8341,0.8326,0.8375,0.836,0.8364,0.837,0.8374,0.8378,0.8375,0.8312,0,0,0,0,0,0.8202,0.8223,0.8236,0.8265,0.8272,0.828,0.8291,0.8292,0.8306,0.8311,0.832,0.8333,0.8352,0.8363,0.8381,0.8414,0.8417,0.8429,0.8432,0.8435,0.8438,0.8455,0.846,0.8406,0.8406,0.8406,0,0,0.8216,0.8228,0.8241,0.8268,0.8279,0.8299,0.8285,0.8307,0.8322,0.8314,0.8342,0.8349,0.8363,0.8394,0.8408,0.84,0.8454,0.8438,0.8441,0.8442,0.8458,0.8463,0.8468,0.8407,0.8407,0.8407,0,0,0.8252,0.8264,0.8289,0.83,0.8317,0.8321,0.8327,0.8343,0.8347,0.8375,0.8369,0.8386,0.8418,0.8428,0.8438,0.8477,0.8472,0.8483,0.8502,0.8518,0.8522,0.8526,0.8539,0.8544,0.8486,0.8486,0.8486,0,0.8267,0.8298,0.8301,0.8324,0.8335,0.8331,0.8355,0.8365,0.8387,0.8394,0.8386,0.8425,0.8435,0.8467,0.8477,0.8485,0.8491,0.848,0.8522,0.8525,0.8529,0.8541,0.8546,0.8487,0.8487,0.8487,0.8487,0,0.8315,0.8337,0.8355,0.8376,0.839,0.8413,0.8418,0.8432,0.8431,0.8436,0.8463,0.8475,0.8494,0.8502,0.8501,0.8534,0.8529,0.8521,0.8506,0.8535,0.8547,0.8551,0.8489,0.8488,0.8488,0.8488,0,0,0.836,0.8382,0.8389,0.8398,0.8416,0.8432,0.8455,0.8474,0.8485,0.85,0.8518,0.8544,0.8537,0.8548,0.8548,0.8563,0.8592,0.8553,0.8554,0.8559,0.8627,0.8632,0.8637,0.8589,0.859,0.859,0.8625,0,0.8396,0.8437,0.844,0.8476,0.8495,0.8491,0.851,0.8523,0.8528,0.8545,0.855,0.8569,0.8559,0.8565,0.8579,0.8585,0.8605,0.8583,0.8604,0.8605,0.86,0.8643,0.8648,0.8681,0.863,0.8631,0.8631,0,0.8444,0.8461,0.8499,0.8513,0.8522,0.8539,0.8557,0.8573,0.8587,0.8589,0.8601,0.86,0.8621,0.8606,0.8636,0.8621,0.863,0.8634,0.8635,0.8636,0.8619,0.8644,0.8691,0.8696,0.8638,0.8638,0.8637,0,0.8471,0.8503,0.853,0.8538,0.8556,0.8568,0.8576,0.8589,0.86,0.8615,0.8622,0.8639,0.8648,0.8661,0.8664,0.8653,0.8693,0.8679,0.8695,0.8695,0.8703,0.8702,0.875,0.871,0.871,0.871,0.871,0,0.851,0.8533,0.8542,0.8558,0.8583,0.8587,0.8611,0.8618,0.863,0.8646,0.8644,0.8659,0.8663,0.8678,0.8681,0.8704,0.8708,0.871,0.871,0.871,0.871,0.8715,0.8712,0.8712,0.8711,0.8711,0.8711,0,0.8544,0.8551,0.8579,0.8594,0.8599,0.8617,0.8629,0.8644,0.8649,0.867,0.8675,0.8683,0.8701,0.8706,0.8727,0.8729,0.8756,0.8755,0.8752,0.8751,0.8767,0.8765,0.882,0.8826,0.8783,0.8783,0.8784,0,0.8568,0.8586,0.8603,0.8615,0.8623,0.8642,0.8653,0.8657,0.8669,0.8685,0.8698,0.8716,0.8731,0.8761,0.8767,0.8784,0.8782,0.88,0.8784,0.8783,0.8781,0.8779,0.878,0.8803,0.8803,0.8804,0.8804,0,0.861,0.8613,0.863,0.8648,0.8662,0.8677,0.869,0.8699,0.8705,0.8718,0.8737,0.8749,0.8771,0.8789,0.8805,0.8812,0.8808,0.8809,0.8813,0.8812,0.8809,0.881,0.8759,0.8807,0.8807,0.8807,0.8807,0.8806,0.8639,0.8654,0.8669,0.8688,0.8698,0.8711,0.8726,0.8733,0.8749,0.8768,0.8769,0.879,0.8802,0.8824,0.8832,0.8847,0.8842,0.8848,0.885,0.8851,0.8852,0.8808,0.8851,0.885,0.885,0.885,0.885,0,0.868,0.8689,0.8706,0.8726,0.874,0.8737,0.8752,0.8764,0.8782,0.8794,0.8809,0.8831,0.8848,0.8856,0.8873,0.8883,0.8882,0.8888,0.8886,0.8888,0.8857,0.8851,0.8888,0.8888,0.8888,0.8888,0.8888,0.8888,0.8702,0.8728,0.8732,0.8762,0.8771,0.8791,0.88,0.8811,0.8821,0.8845,0.886,0.8866,0.8876,0.8893,0.8908,0.891,0.8916,0.8922,0.8923,0.8894,0.889,0.8886,0.888,0.8924,0.8924,0.8952,0.8953,0.8953]},{"header":{"parameterUnit":"m.s-1","parameterCategory":1,"la1":30.2991,"la2":30.254,"lo1":-89.0895,"lo2":-89.0444,"dy":0.0017,"dx":0.0017,"nx":28,"ny":28,"refTime":"2025-06-17T09:00:00:Z","depth":0,"parameterNumber":3,"parameterNumberName":"V-component_of_WINDS"},"data":[0,0,0,0,0,0,0,0,0,0,0,0,0,0,0,0,0,0,0,0,0,0,0,0,0,0,0,0,0,0,0,0,0,0,0,0,0,0,0,0,0,0,0,0,0,0,0,0,0,0,0,0,0,0,0,0,0,0,3.7322,3.7322,0,3.7375,3.7376,3.7377,3.7331,3.7329,3.7327,3.7325,3.7376,3.7379,3.7382,0,0,0,0,0,0,0,0,0,0,0,0,0,3.7175,3.7178,3.7322,3.7322,3.7323,3.7375,3.7376,3.7377,3.7331,3.7329,3.7327,3.7324,3.7375,3.7379,3.7382,0,0,0,0,0,0,0,0,0,0,0,0,0,3.7234,3.7179,3.7321,3.7307,3.7306,3.7375,3.7376,3.7377,3.7332,3.7329,3.7326,3.7323,3.7374,3.7378,3.7383,3.7468,0,0,3.7397,3.7399,0,0,0,0,0,0,0,0,3.7231,3.724,3.7308,3.7308,3.7307,3.7344,3.7343,3.7407,3.7332,3.7322,3.7325,3.7322,3.7367,3.7372,3.7388,3.7471,3.7473,3.7398,3.74,3.7402,3.7404,0,0,0,0,0,0,0,3.7227,3.7237,3.7343,3.7309,3.7308,3.7296,3.7301,3.7355,3.7359,3.7322,3.7319,3.7326,3.7366,3.7384,3.7389,3.7474,3.7397,3.7402,3.7404,3.7406,3.7628,3.7631,0,0,0,0,0,0,3.7225,3.7234,3.7341,3.7344,3.7261,3.7301,3.7307,3.7335,3.7359,3.736,3.7329,3.7324,3.7377,3.7384,3.7391,3.7492,3.7402,3.7407,3.7409,3.7625,3.7629,3.7632,0,0,0,0,0,0,3.7222,3.7235,3.7339,3.7288,3.7301,3.7306,3.7338,3.7337,3.7355,3.7364,3.7364,3.7346,3.7375,3.7384,3.745,3.7493,3.7409,3.7413,3.7621,3.7626,3.763,3.7696,0,0,0,0,0,0,3.7218,3.7234,3.7268,3.729,3.7304,3.7398,3.7341,3.734,3.7364,3.7358,3.738,3.7381,3.7374,3.7443,3.7454,3.7498,3.7417,3.7617,3.7623,3.7629,3.769,3.7702,3.7713,0,0,0,0,0,3.7213,3.7283,3.727,3.7283,3.7346,3.7401,3.7409,3.74,3.7367,3.74,3.7406,3.738,3.7487,3.745,3.7462,3.7508,3.7615,3.7622,3.7628,3.7685,3.77,3.7713,0,0,0,0,0,0,3.7265,3.7286,3.7271,3.7351,3.7375,3.7393,3.7435,3.7417,3.7449,3.7442,3.7429,3.7434,3.7503,3.7512,3.7471,3.7592,3.7545,3.7555,3.7584,3.7598,3.7609,3.7605,3.7421,0,0,0,0,0,3.7286,3.733,3.7346,3.7414,3.7427,3.7429,3.7453,3.7444,3.7468,3.7477,3.7487,3.751,3.7548,3.7574,3.7609,3.7691,3.7695,3.7729,3.774,3.775,3.7758,3.7801,3.7816,3.7655,3.7655,3.7655,0,0,3.7329,3.7346,3.7375,3.7425,3.7443,3.7488,3.7438,3.7487,3.752,3.7484,3.7547,3.7555,3.7579,3.7653,3.7686,3.7663,3.7803,3.7758,3.7766,3.7769,3.781,3.7825,3.7839,3.766,3.7659,3.7658,0,0,3.7431,3.7449,3.7508,3.7527,3.7555,3.7555,3.757,3.7591,3.7596,3.7659,3.7633,3.767,3.7737,3.7755,3.7773,3.7882,3.7859,3.7894,3.7954,3.7996,3.8009,3.802,3.8058,3.8072,3.7902,3.7903,3.7903,0,3.7481,3.7549,3.7541,3.7593,3.7615,3.7586,3.7645,3.7663,3.77,3.7716,3.7689,3.7773,3.7787,3.7864,3.7891,3.7906,3.7921,3.7891,3.8008,3.8019,3.8029,3.8066,3.808,3.7907,3.7906,3.7906,3.7905,0,3.7609,3.7657,3.7701,3.7739,3.7767,3.7822,3.782,3.7849,3.7838,3.7841,3.7905,3.7921,3.7959,3.7977,3.7966,3.8053,3.8038,3.801,3.7963,3.8049,3.8083,3.8097,3.7912,3.7911,3.791,3.7909,0,0,3.7745,3.7779,3.7795,3.7812,3.784,3.7876,3.7929,3.7968,3.7993,3.8019,3.8063,3.812,3.8095,3.8115,3.8106,3.8143,3.8228,3.8111,3.8111,3.8132,3.8324,3.8344,3.8361,3.8213,3.8216,3.8218,3.8322,0,3.7848,3.7943,3.7936,3.8024,3.8068,3.8041,3.8087,3.8108,3.8113,3.8149,3.8153,3.8193,3.8157,3.8169,3.8205,3.821,3.8266,3.8203,3.8252,3.8254,3.8247,3.8379,3.84,3.8497,3.8335,3.8337,3.8339,0,3.798,3.8013,3.8107,3.8129,3.8146,3.8188,3.8223,3.8259,3.8282,3.8282,3.8306,3.829,3.8343,3.8294,3.8366,3.8322,3.8342,3.8348,3.8351,3.8355,3.8302,3.8386,3.8528,3.8543,3.836,3.8358,3.8356,0,3.807,3.8137,3.8202,3.8217,3.8244,3.8274,3.8286,3.8307,3.8331,3.8361,3.8376,3.8412,3.8431,3.8458,3.8452,3.8418,3.8525,3.8476,3.8526,3.8526,3.8549,3.8548,3.8697,3.8563,3.8563,3.8562,3.8562,0,3.8185,3.8243,3.8242,3.8282,3.8346,3.8337,3.84,3.8408,3.8427,3.8467,3.8445,3.8482,3.8473,3.8509,3.8505,3.8564,3.8573,3.8574,3.8572,3.8576,3.8576,3.8588,3.8581,3.8566,3.8565,3.8564,3.8564,0,3.8295,3.8297,3.8366,3.8386,3.8393,3.8439,3.8456,3.8492,3.8495,3.8545,3.8557,3.856,3.8602,3.86,3.8646,3.8643,3.8717,3.8707,3.8709,3.8707,3.8757,3.8752,3.8919,3.894,3.8793,3.8794,3.8795,0,3.8369,3.8413,3.8439,3.8465,3.848,3.8521,3.8546,3.8539,3.8565,3.8595,3.8628,3.8668,3.87,3.8768,3.8774,3.881,3.8801,3.8857,3.8806,3.8808,3.8801,3.8799,3.8803,3.8867,3.8868,3.887,3.8871,0,3.8499,3.8498,3.8535,3.8573,3.8603,3.8632,3.8659,3.868,3.8676,3.8706,3.875,3.8775,3.8824,3.8863,3.8898,3.8908,3.8889,3.8887,3.89,3.8904,3.8904,3.8904,3.8736,3.8883,3.8882,3.8881,3.888,3.888,3.8592,3.863,3.8655,3.8697,3.8716,3.8742,3.8777,3.8785,3.8822,3.8862,3.8855,3.8904,3.8925,3.8969,3.8984,3.9021,3.9,3.9019,3.9024,3.9029,3.9035,3.8898,3.9027,3.9026,3.9026,3.9026,3.9025,0,3.8721,3.8735,3.8774,3.8813,3.8846,3.8826,3.8854,3.8882,3.8926,3.8949,3.8981,3.9031,3.907,3.9079,3.9116,3.9144,3.9135,3.9153,3.9151,3.9154,3.9051,3.9036,3.9159,3.9159,3.9159,3.9159,3.9159,3.9159,3.8791,3.8855,3.8857,3.8929,3.8942,3.8991,3.9009,3.9032,3.905,3.9107,3.914,3.9146,3.9163,3.9201,3.9235,3.9237,3.9251,3.9273,3.9271,3.9175,3.9161,3.9148,3.9134,3.9276,3.9276,3.9371,3.9372,3.9372]}]]